CFG4FD EDDM-LGSA

Flight info

Callsign CFG4FD
Flight time 2h 13m
Altitude 35000
Route VAVOR3E VAVOR M867 RADIZ DCT EVAXI DCT NIPEL DCT ELTIB DCT VRANA DCT DIMIS UL604 TRL UL612 RUSOS RUSOS2G
Aircraft A321/M-SDE3FGHIRWY/LB1

Departure

Time 2026-05-04 13:14
Airport Munich Airport (EDDM)

Arrival

Time 2026-05-04 15:27
Airport Chania International Airport (LGSA)
Time Latitude Longitude Altitude Speed Heading
2026-05-04 12:21 48.34997 11.78363 1486 ft 0 kts 83°
2026-05-04 13:02 48.34996 11.78359 1513 ft 1 kts 83°
2026-05-04 13:02 48.34995 11.78346 1471 ft 1 kts 83°
2026-05-04 13:02 48.34994 11.78334 1471 ft 1 kts 83°
2026-05-04 13:03 48.34993 11.78321 1483 ft 1 kts 83°
2026-05-04 13:03 48.34992 11.78308 1473 ft 1 kts 83°
2026-05-04 13:03 48.34991 11.78295 1475 ft 1 kts 83°
2026-05-04 13:03 48.34990 11.78282 1478 ft 1 kts 83°
2026-05-04 13:04 48.34989 11.78267 1477 ft 1 kts 83°
2026-05-04 13:04 48.34988 11.78252 1477 ft 1 kts 83°
2026-05-04 13:04 48.34987 11.78237 1476 ft 1 kts 83°
2026-05-04 13:04 48.34986 11.78222 1476 ft 1 kts 70°
2026-05-04 13:05 48.34982 11.78208 1471 ft 1 kts 40°
2026-05-04 13:05 48.34974 11.78198 1471 ft 1 kts 353°
2026-05-04 13:05 48.34964 11.78201 1474 ft 1 kts 353°
2026-05-04 13:05 48.34962 11.78201 1475 ft 0 kts 353°
2026-05-04 13:06 48.34985 11.78197 1475 ft 6 kts 353°
2026-05-04 13:07 48.35043 11.78188 1475 ft 11 kts 353°
2026-05-04 13:07 48.35112 11.78176 1483 ft 9 kts 353°
2026-05-04 13:07 48.35182 11.78157 1475 ft 12 kts 329°
2026-05-04 13:07 48.35194 11.78037 1485 ft 11 kts 264°
2026-05-04 13:08 48.35185 11.77925 1478 ft 11 kts 263°
2026-05-04 13:08 48.35148 11.77823 1483 ft 13 kts 198°
2026-05-04 13:08 48.35050 11.77834 1481 ft 14 kts 173°
2026-05-04 13:08 48.34961 11.77850 1481 ft 12 kts 173°
2026-05-04 13:09 48.34879 11.77864 1485 ft 12 kts 173°
2026-05-04 13:09 48.34777 11.77882 1485 ft 18 kts 173°
2026-05-04 13:09 48.34682 11.77888 1475 ft 12 kts 203°
2026-05-04 13:09 48.34651 11.77733 1483 ft 21 kts 263°
2026-05-04 13:10 48.34631 11.77477 1485 ft 28 kts 263°
2026-05-04 13:10 48.34609 11.77196 1479 ft 26 kts 263°
2026-05-04 13:10 48.34588 11.76924 1485 ft 26 kts 263°
2026-05-04 13:10 48.34568 11.76658 1485 ft 25 kts 263°
2026-05-04 13:11 48.34548 11.76397 1476 ft 26 kts 263°
2026-05-04 13:11 48.34526 11.76123 1485 ft 28 kts 263°
2026-05-04 13:11 48.34503 11.75814 1480 ft 25 kts 263°
2026-05-04 13:11 48.34483 11.75556 1476 ft 24 kts 263°
2026-05-04 13:12 48.34464 11.75313 1475 ft 23 kts 263°
2026-05-04 13:12 48.34425 11.75217 1485 ft 12 kts 190°
2026-05-04 13:12 48.34329 11.75232 1485 ft 15 kts 173°
2026-05-04 13:12 48.34217 11.75252 1485 ft 17 kts 173°
2026-05-04 13:13 48.34106 11.75278 1477 ft 11 kts 152°
2026-05-04 13:13 48.34095 11.75463 1485 ft 37 kts 83°
2026-05-04 13:13 48.34152 11.76190 1479 ft 101 kts 83°
2026-05-04 13:13 48.34254 11.77500 1486 ft 149 kts 83°
2026-05-04 13:14 48.34379 11.79238 1592 ft 178 kts 83°
2026-05-04 13:14 48.34514 11.81065 2259 ft 176 kts 83°
2026-05-04 13:14 48.34651 11.82906 2773 ft 183 kts 83°
2026-05-04 13:14 48.34797 11.84878 3047 ft 197 kts 83°
2026-05-04 13:15 48.34960 11.87025 3234 ft 218 kts 82°
2026-05-04 13:15 48.35147 11.89417 3563 ft 239 kts 82°
2026-05-04 13:15 48.35341 11.91927 4246 ft 243 kts 83°
2026-05-04 13:15 48.35380 11.94471 5041 ft 246 kts 103°
2026-05-04 13:16 48.34565 11.96708 5719 ft 250 kts 138°
2026-05-04 13:16 48.33202 11.98350 6522 ft 252 kts 144°
2026-05-04 13:16 48.31774 11.99935 7150 ft 262 kts 152°
2026-05-04 13:16 48.30021 12.00868 7595 ft 273 kts 167°
2026-05-04 13:17 48.28169 12.01594 8314 ft 277 kts 167°
2026-05-04 13:17 48.26295 12.02338 9073 ft 279 kts 167°
2026-05-04 13:17 48.24409 12.03091 9827 ft 281 kts 167°
2026-05-04 13:17 48.22498 12.03857 10333 ft 293 kts 167°
2026-05-04 13:18 48.20452 12.04676 10476 ft 315 kts 166°
2026-05-04 13:18 48.18270 12.05548 10755 ft 331 kts 167°
2026-05-04 13:18 48.16024 12.06444 11364 ft 336 kts 167°
2026-05-04 13:18 48.13756 12.07350 12020 ft 339 kts 167°
2026-05-04 13:19 48.11474 12.08264 12677 ft 342 kts 167°
2026-05-04 13:19 48.09158 12.09191 13354 ft 345 kts 167°
2026-05-04 13:19 48.06828 12.10121 13985 ft 349 kts 167°
2026-05-04 13:19 48.04472 12.11058 14592 ft 352 kts 167°
2026-05-04 13:20 48.02091 12.12001 15182 ft 355 kts 167°
2026-05-04 13:20 47.99694 12.12950 15752 ft 358 kts 167°
2026-05-04 13:20 47.97274 12.13907 16329 ft 362 kts 167°
2026-05-04 13:20 47.94852 12.14988 16907 ft 366 kts 160°
2026-05-04 13:21 47.92564 12.16719 17456 ft 373 kts 149°
2026-05-04 13:21 47.90500 12.19105 18003 ft 378 kts 142°
2026-05-04 13:21 47.88490 12.21660 18528 ft 381 kts 142°
2026-05-04 13:21 47.86460 12.24222 18990 ft 384 kts 142°
2026-05-04 13:22 47.84406 12.26802 19462 ft 387 kts 142°
2026-05-04 13:22 47.82339 12.29392 19906 ft 390 kts 142°
2026-05-04 13:22 47.80254 12.32001 20368 ft 393 kts 142°
2026-05-04 13:22 47.78149 12.34626 20819 ft 396 kts 142°
2026-05-04 13:23 47.76028 12.37264 21253 ft 399 kts 142°
2026-05-04 13:23 47.73887 12.39926 21675 ft 403 kts 142°
2026-05-04 13:23 47.71736 12.42606 22122 ft 405 kts 142°
2026-05-04 13:23 47.69567 12.45303 22563 ft 409 kts 142°
2026-05-04 13:24 47.67373 12.48017 22990 ft 412 kts 142°
2026-05-04 13:24 47.65161 12.50744 23404 ft 415 kts 142°
2026-05-04 13:24 47.62935 12.53481 23761 ft 418 kts 142°
2026-05-04 13:25 47.58393 12.58938 24484 ft 423 kts 143°
2026-05-04 13:25 47.56083 12.61641 24835 ft 424 kts 144°
2026-05-04 13:25 47.53752 12.64349 25184 ft 427 kts 144°
2026-05-04 13:25 47.51410 12.67068 25507 ft 429 kts 144°
2026-05-04 13:26 47.49061 12.69798 25830 ft 431 kts 144°
2026-05-04 13:26 47.46699 12.72549 26167 ft 433 kts 143°
2026-05-04 13:26 47.44329 12.75318 26510 ft 436 kts 143°
2026-05-04 13:26 47.41947 12.78107 26861 ft 438 kts 143°
2026-05-04 13:27 47.39554 12.80903 27189 ft 440 kts 143°
2026-05-04 13:27 47.37149 12.83710 27517 ft 442 kts 144°
2026-05-04 13:27 47.34729 12.86531 27861 ft 444 kts 143°
2026-05-04 13:27 47.32301 12.89357 28184 ft 446 kts 144°
2026-05-04 13:28 47.29854 12.92199 28494 ft 449 kts 144°
2026-05-04 13:28 47.27396 12.95048 28797 ft 450 kts 144°
2026-05-04 13:28 47.24927 12.97906 29060 ft 452 kts 143°
2026-05-04 13:28 47.22449 13.00776 29352 ft 454 kts 143°
2026-05-04 13:29 47.19958 13.03655 29626 ft 456 kts 143°
2026-05-04 13:29 47.17456 13.06543 29919 ft 458 kts 144°
2026-05-04 13:29 47.14946 13.09432 30190 ft 459 kts 144°
2026-05-04 13:29 47.12424 13.12330 30424 ft 461 kts 144°
2026-05-04 13:30 47.09899 13.15227 30763 ft 460 kts 144°
2026-05-04 13:30 47.07381 13.18116 31146 ft 459 kts 144°
2026-05-04 13:30 47.04869 13.20997 31523 ft 458 kts 144°
2026-05-04 13:30 47.02355 13.23877 31892 ft 458 kts 144°
2026-05-04 13:31 46.99847 13.26747 32160 ft 457 kts 144°
2026-05-04 13:31 46.97337 13.29614 32426 ft 457 kts 144°
2026-05-04 13:31 46.94836 13.32467 32698 ft 456 kts 144°
2026-05-04 13:31 46.92335 13.35317 32944 ft 456 kts 144°
2026-05-04 13:32 46.87336 13.41003 33045 ft 455 kts 144°
2026-05-04 13:32 46.82329 13.46691 33043 ft 456 kts 144°
2026-05-04 13:33 46.77440 13.52585 33047 ft 459 kts 136°
2026-05-04 13:33 46.73341 13.59760 33043 ft 461 kts 130°
2026-05-04 13:34 46.69296 13.67029 33052 ft 462 kts 131°
2026-05-04 13:34 46.65920 13.73068 33049 ft 463 kts 131°
2026-05-04 13:35 46.59825 13.83940 33049 ft 463 kts 131°
2026-05-04 13:36 46.55753 13.91189 33045 ft 463 kts 131°
2026-05-04 13:36 46.51669 13.98423 33049 ft 463 kts 131°
2026-05-04 13:37 46.47375 14.05382 33047 ft 461 kts 139°
2026-05-04 13:37 46.42658 14.11702 33047 ft 462 kts 139°
2026-05-04 13:38 46.37931 14.18019 33066 ft 463 kts 139°
2026-05-04 13:38 46.33199 14.24347 33076 ft 463 kts 139°
2026-05-04 13:39 46.28457 14.30672 33079 ft 464 kts 139°
2026-05-04 13:39 46.23709 14.36991 33086 ft 464 kts 139°
2026-05-04 13:40 46.18958 14.43292 33084 ft 464 kts 139°
2026-05-04 13:40 46.14193 14.49599 33083 ft 464 kts 139°
2026-05-04 13:41 46.09429 14.55889 33081 ft 465 kts 139°
2026-05-04 13:41 46.04652 14.62175 33076 ft 465 kts 139°
2026-05-04 13:42 45.97475 14.71579 33070 ft 465 kts 139°
2026-05-04 13:42 45.92686 14.77836 33064 ft 465 kts 139°
2026-05-04 13:43 45.87897 14.84086 33062 ft 465 kts 139°
2026-05-04 13:43 45.83111 14.90326 33063 ft 465 kts 139°
2026-05-04 13:44 45.78310 14.96556 33058 ft 465 kts 139°
2026-05-04 13:44 45.73502 15.02774 33058 ft 466 kts 139°
2026-05-04 13:45 45.68695 15.08988 33054 ft 466 kts 139°
2026-05-04 13:45 45.63886 15.15193 33054 ft 466 kts 139°
2026-05-04 13:46 45.59068 15.21392 33057 ft 466 kts 139°
2026-05-04 13:46 45.54245 15.27582 33056 ft 466 kts 139°
2026-05-04 13:47 45.49420 15.33767 33053 ft 467 kts 139°
2026-05-04 13:47 45.44579 15.39950 33053 ft 467 kts 139°
2026-05-04 13:48 45.39734 15.46116 33050 ft 467 kts 139°
2026-05-04 13:48 45.34882 15.52273 33052 ft 468 kts 139°
2026-05-04 13:49 45.30027 15.58431 33046 ft 468 kts 139°
2026-05-04 13:49 45.25164 15.64585 33045 ft 468 kts 139°
2026-05-04 13:50 45.20288 15.70727 33046 ft 469 kts 139°
2026-05-04 13:50 45.15416 15.76864 33045 ft 469 kts 139°
2026-05-04 13:51 45.10540 15.82994 33047 ft 469 kts 139°
2026-05-04 13:51 45.05656 15.89111 33046 ft 469 kts 139°
2026-05-04 13:52 44.98309 15.98291 33050 ft 470 kts 139°
2026-05-04 13:53 44.93402 16.04398 33050 ft 471 kts 139°
2026-05-04 13:53 44.88481 16.10501 33048 ft 471 kts 139°
2026-05-04 13:54 44.81100 16.19648 33052 ft 471 kts 139°
2026-05-04 13:55 44.73705 16.28782 33060 ft 472 kts 139°
2026-05-04 13:55 44.66290 16.37896 33068 ft 472 kts 139°
2026-05-04 13:56 44.61340 16.43972 33072 ft 473 kts 139°
2026-05-04 13:57 44.53896 16.53064 33180 ft 474 kts 139°
2026-05-04 13:57 44.51412 16.56091 33528 ft 474 kts 139°
2026-05-04 13:58 44.43956 16.65174 34471 ft 473 kts 139°
2026-05-04 13:58 44.38995 16.71207 35010 ft 473 kts 139°
2026-05-04 13:58 44.36516 16.74205 35073 ft 469 kts 139°
2026-05-04 13:59 44.31605 16.80134 35075 ft 466 kts 139°
2026-05-04 14:00 44.24435 16.89274 35070 ft 465 kts 135°
2026-05-04 14:00 44.17477 16.98717 35075 ft 465 kts 135°
2026-05-04 14:01 44.12794 17.04936 35073 ft 465 kts 136°
2026-05-04 14:02 44.05712 17.14190 35061 ft 466 kts 136°
2026-05-04 14:02 44.01003 17.20357 35056 ft 466 kts 136°
2026-05-04 14:03 43.96292 17.26551 35073 ft 466 kts 136°
2026-05-04 14:03 43.91574 17.32729 35075 ft 466 kts 136°
2026-05-04 14:04 43.84464 17.41961 35076 ft 467 kts 136°
2026-05-04 14:04 43.79722 17.48105 35080 ft 467 kts 136°
2026-05-04 14:05 43.72200 17.56632 35080 ft 467 kts 147°
2026-05-04 14:06 43.66724 17.61484 35083 ft 468 kts 147°
2026-05-04 14:06 43.61240 17.66314 35076 ft 468 kts 147°
2026-05-04 14:07 43.55747 17.71149 35077 ft 468 kts 147°
2026-05-04 14:07 43.50260 17.76012 35076 ft 469 kts 147°
2026-05-04 14:08 43.44763 17.80865 35075 ft 470 kts 147°
2026-05-04 14:08 43.39257 17.85708 35098 ft 470 kts 147°
2026-05-04 14:09 43.30970 17.92943 35096 ft 471 kts 147°
2026-05-04 14:10 43.22677 18.00179 35097 ft 471 kts 147°
2026-05-04 14:10 43.17141 18.05001 35101 ft 472 kts 147°
2026-05-04 14:11 43.11601 18.09834 35104 ft 472 kts 147°
2026-05-04 14:11 43.03268 18.17067 35114 ft 473 kts 147°
2026-05-04 14:12 42.97701 18.21870 35117 ft 474 kts 148°
2026-05-04 14:13 42.89328 18.29075 35125 ft 474 kts 147°
2026-05-04 14:13 42.83744 18.33881 35135 ft 475 kts 147°
2026-05-04 14:14 42.78154 18.38673 35141 ft 475 kts 147°
2026-05-04 14:14 42.69755 18.45854 35145 ft 476 kts 148°
2026-05-04 14:15 42.59468 18.54624 35143 ft 477 kts 148°
2026-05-04 14:16 42.51031 18.61792 35121 ft 477 kts 148°
2026-05-04 14:17 42.42574 18.68947 35123 ft 478 kts 148°
2026-05-04 14:18 42.34095 18.76104 35128 ft 479 kts 148°
2026-05-04 14:19 42.22782 18.85620 35126 ft 480 kts 148°
2026-05-04 14:19 42.17113 18.90376 35121 ft 480 kts 148°
2026-05-04 14:20 42.11438 18.95127 35105 ft 480 kts 148°
2026-05-04 14:20 42.05753 18.99865 35104 ft 481 kts 148°
2026-05-04 14:21 41.97210 19.06969 35101 ft 482 kts 148°
2026-05-04 14:21 41.91504 19.11699 35103 ft 482 kts 148°
2026-05-04 14:22 41.85783 19.16432 35104 ft 483 kts 148°
2026-05-04 14:22 41.80069 19.21162 35103 ft 483 kts 148°
2026-05-04 14:23 41.71470 19.28254 35107 ft 484 kts 148°
2026-05-04 14:24 41.65732 19.32966 35110 ft 484 kts 148°
2026-05-04 14:24 41.59995 19.37682 35113 ft 484 kts 148°
2026-05-04 14:25 41.54241 19.42389 35114 ft 485 kts 148°
2026-05-04 14:25 41.45599 19.49445 35106 ft 485 kts 148°
2026-05-04 14:26 41.39840 19.54138 35107 ft 485 kts 148°
2026-05-04 14:26 41.34076 19.58825 35098 ft 486 kts 148°
2026-05-04 14:27 41.28305 19.63503 35102 ft 486 kts 148°
2026-05-04 14:27 41.22521 19.68176 35110 ft 487 kts 148°
2026-05-04 14:28 41.16733 19.72850 35116 ft 487 kts 148°
2026-05-04 14:28 41.10939 19.77522 35117 ft 487 kts 148°
2026-05-04 14:29 40.99340 19.86847 35115 ft 488 kts 148°
2026-05-04 14:30 40.93530 19.91503 35111 ft 488 kts 148°
2026-05-04 14:31 40.84843 19.98427 35115 ft 489 kts 148°
2026-05-04 14:32 40.73195 20.07702 35104 ft 489 kts 148°
2026-05-04 14:32 40.67363 20.12337 35103 ft 490 kts 148°
2026-05-04 14:33 40.61520 20.16955 35099 ft 490 kts 148°
2026-05-04 14:33 40.55976 20.22113 35089 ft 489 kts 140°
2026-05-04 14:34 40.50640 20.27667 35089 ft 489 kts 140°
2026-05-04 14:34 40.45320 20.33247 35096 ft 490 kts 140°
2026-05-04 14:35 40.39962 20.38775 35093 ft 490 kts 140°
2026-05-04 14:35 40.34579 20.44256 35092 ft 490 kts 141°
2026-05-04 14:36 40.29197 20.49737 35091 ft 490 kts 140°
2026-05-04 14:36 40.23818 20.55221 35092 ft 490 kts 141°
2026-05-04 14:37 40.18431 20.60688 35087 ft 490 kts 141°
2026-05-04 14:37 40.13077 20.66114 35092 ft 490 kts 141°
2026-05-04 14:38 40.07678 20.71580 35093 ft 491 kts 141°
2026-05-04 14:38 40.02280 20.77039 35094 ft 491 kts 141°
2026-05-04 14:39 39.96879 20.82491 35096 ft 491 kts 141°
2026-05-04 14:39 39.91478 20.87920 35098 ft 490 kts 141°
2026-05-04 14:40 39.83365 20.96051 35095 ft 491 kts 141°
2026-05-04 14:40 39.77947 21.01478 35101 ft 492 kts 141°
2026-05-04 14:41 39.72514 21.06893 35099 ft 492 kts 141°
2026-05-04 14:42 39.61643 21.17706 35097 ft 493 kts 141°
2026-05-04 14:42 39.56206 21.23120 35094 ft 493 kts 141°
2026-05-04 14:43 39.50755 21.28519 35093 ft 493 kts 141°
2026-05-04 14:43 39.45293 21.33900 35090 ft 494 kts 141°
2026-05-04 14:44 39.39826 21.39284 35088 ft 494 kts 141°
2026-05-04 14:44 39.34362 21.44676 35086 ft 494 kts 141°
2026-05-04 14:45 39.28887 21.50069 35081 ft 495 kts 141°
2026-05-04 14:45 39.23405 21.55440 35085 ft 496 kts 141°
2026-05-04 14:46 39.17908 21.60809 35082 ft 495 kts 141°
2026-05-04 14:46 39.12420 21.66175 35088 ft 495 kts 141°
2026-05-04 14:47 39.06925 21.71538 35093 ft 496 kts 141°
2026-05-04 14:47 39.01421 21.76893 35094 ft 496 kts 141°
2026-05-04 14:48 38.95941 21.82212 35100 ft 497 kts 141°
2026-05-04 14:48 38.90426 21.87555 35099 ft 496 kts 141°
2026-05-04 14:49 38.84907 21.92896 35104 ft 497 kts 141°
2026-05-04 14:49 38.79373 21.98229 35102 ft 498 kts 142°
2026-05-04 14:50 38.73828 22.03560 35097 ft 498 kts 142°
2026-05-04 14:50 38.68273 22.08888 35101 ft 499 kts 142°
2026-05-04 14:51 38.62721 22.14222 35099 ft 499 kts 142°
2026-05-04 14:51 38.57061 22.19363 35090 ft 500 kts 147°
2026-05-04 14:52 38.51133 22.24020 35094 ft 500 kts 149°
2026-05-04 14:52 38.45163 22.28588 35098 ft 500 kts 149°
2026-05-04 14:53 38.39196 22.33171 35100 ft 501 kts 148°
2026-05-04 14:53 38.33247 22.37779 35097 ft 501 kts 148°
2026-05-04 14:54 38.27286 22.42394 35100 ft 501 kts 148°
2026-05-04 14:54 38.21359 22.46959 35100 ft 502 kts 148°
2026-05-04 14:55 38.15383 22.51551 35100 ft 502 kts 148°
2026-05-04 14:55 38.09395 22.56145 35098 ft 503 kts 148°
2026-05-04 14:56 38.03402 22.60738 35100 ft 503 kts 149°
2026-05-04 14:56 37.97405 22.65314 35099 ft 503 kts 149°
2026-05-04 14:57 37.91409 22.69887 35100 ft 503 kts 149°
2026-05-04 14:57 37.85410 22.74464 35098 ft 503 kts 149°
2026-05-04 14:58 37.79416 22.79027 35099 ft 503 kts 149°
2026-05-04 14:58 37.74425 22.82813 35103 ft 503 kts 149°
2026-05-04 14:59 37.67399 22.88124 35102 ft 503 kts 149°
2026-05-04 15:00 37.58385 22.94923 35106 ft 503 kts 149°
2026-05-04 15:00 37.52377 22.99449 35110 ft 504 kts 149°
2026-05-04 15:01 37.44372 23.05479 35110 ft 504 kts 149°
2026-05-04 15:01 37.41356 23.07742 34912 ft 505 kts 149°
2026-05-04 15:01 37.38338 23.10003 34680 ft 506 kts 150°
2026-05-04 15:02 37.35306 23.12268 34439 ft 508 kts 150°
2026-05-04 15:02 37.32260 23.14543 34211 ft 510 kts 150°
2026-05-04 15:02 37.29208 23.16824 33944 ft 512 kts 150°
2026-05-04 15:02 37.26143 23.19115 33568 ft 513 kts 150°
2026-05-04 15:03 37.23076 23.21407 33187 ft 514 kts 150°
2026-05-04 15:03 37.20009 23.23695 32831 ft 513 kts 150°
2026-05-04 15:03 37.16944 23.25979 32450 ft 511 kts 150°
2026-05-04 15:03 37.13900 23.28245 32038 ft 508 kts 150°
2026-05-04 15:04 37.10862 23.30500 31631 ft 506 kts 150°
2026-05-04 15:04 37.07838 23.32740 31234 ft 504 kts 150°
2026-05-04 15:04 37.04833 23.34965 30836 ft 501 kts 150°
2026-05-04 15:04 37.01834 23.37186 30459 ft 499 kts 150°
2026-05-04 15:05 36.98849 23.39394 30051 ft 497 kts 150°
2026-05-04 15:05 36.95880 23.41589 29590 ft 494 kts 150°
2026-05-04 15:05 36.92935 23.43766 29154 ft 490 kts 150°
2026-05-04 15:05 36.90007 23.45931 28676 ft 487 kts 150°
2026-05-04 15:06 36.87101 23.48080 28190 ft 483 kts 150°
2026-05-04 15:06 36.84218 23.50210 27708 ft 480 kts 150°
2026-05-04 15:06 36.81359 23.52319 27251 ft 476 kts 150°
2026-05-04 15:07 36.75695 23.56480 26344 ft 469 kts 150°
2026-05-04 15:07 36.72899 23.58527 25901 ft 465 kts 150°
2026-05-04 15:07 36.70119 23.60564 25463 ft 462 kts 150°
2026-05-04 15:07 36.67354 23.62594 25038 ft 459 kts 150°
2026-05-04 15:08 36.64649 23.64579 24569 ft 456 kts 150°
2026-05-04 15:08 36.61928 23.66574 24110 ft 453 kts 150°
2026-05-04 15:08 36.59214 23.68558 23637 ft 450 kts 150°
2026-05-04 15:08 36.56521 23.70525 23101 ft 448 kts 150°
2026-05-04 15:09 36.53842 23.72480 22564 ft 445 kts 150°
2026-05-04 15:09 36.51185 23.74421 22035 ft 442 kts 150°
2026-05-04 15:09 36.48540 23.76350 21518 ft 439 kts 150°
2026-05-04 15:10 36.43297 23.80169 20507 ft 434 kts 150°
2026-05-04 15:10 36.40698 23.82058 20016 ft 432 kts 150°
2026-05-04 15:10 36.35538 23.85800 19051 ft 427 kts 150°
2026-05-04 15:11 36.32980 23.87659 18580 ft 425 kts 150°
2026-05-04 15:11 36.30434 23.89510 18067 ft 423 kts 150°
2026-05-04 15:11 36.27901 23.91350 17533 ft 421 kts 150°
2026-05-04 15:11 36.25385 23.93174 17008 ft 418 kts 150°
2026-05-04 15:12 36.22881 23.94985 16487 ft 415 kts 150°
2026-05-04 15:12 36.20392 23.96784 15976 ft 412 kts 149°
2026-05-04 15:12 36.17925 23.98567 15528 ft 408 kts 149°
2026-05-04 15:12 36.15487 24.00331 15068 ft 404 kts 149°
2026-05-04 15:13 36.13075 24.02073 14633 ft 399 kts 149°
2026-05-04 15:13 36.10689 24.03793 14204 ft 395 kts 149°
2026-05-04 15:13 36.08328 24.05493 13757 ft 391 kts 149°
2026-05-04 15:13 36.05991 24.07173 13275 ft 387 kts 149°
2026-05-04 15:14 36.03678 24.08833 12802 ft 382 kts 149°
2026-05-04 15:14 36.01387 24.10472 12336 ft 378 kts 149°
2026-05-04 15:14 35.99123 24.12094 11892 ft 374 kts 149°
2026-05-04 15:14 35.96896 24.13695 11515 ft 368 kts 149°
2026-05-04 15:15 35.94697 24.15277 11128 ft 363 kts 149°
2026-05-04 15:15 35.92528 24.16837 10712 ft 360 kts 149°
2026-05-04 15:15 35.90376 24.18382 10297 ft 356 kts 149°
2026-05-04 15:16 35.86131 24.21414 9402 ft 347 kts 149°
2026-05-04 15:16 35.84066 24.22889 8880 ft 338 kts 149°
2026-05-04 15:16 35.80095 24.25733 7859 ft 323 kts 149°
2026-05-04 15:17 35.78170 24.27105 7364 ft 317 kts 150°
2026-05-04 15:17 35.74418 24.29779 6375 ft 307 kts 150°
2026-05-04 15:17 35.72612 24.31069 5850 ft 302 kts 150°
2026-05-04 15:18 35.70813 24.32355 5349 ft 296 kts 150°
2026-05-04 15:18 35.69051 24.33608 5188 ft 289 kts 150°
2026-05-04 15:18 35.67313 24.34842 5087 ft 288 kts 150°
2026-05-04 15:19 35.63854 24.37293 4926 ft 286 kts 150°
2026-05-04 15:19 35.62127 24.38517 4828 ft 286 kts 150°
2026-05-04 15:19 35.58620 24.40744 4641 ft 282 kts 162°
2026-05-04 15:20 35.56736 24.41408 4549 ft 281 kts 169°
2026-05-04 15:20 35.54881 24.41815 4414 ft 265 kts 175°
2026-05-04 15:20 35.53075 24.41995 4309 ft 248 kts 181°
2026-05-04 15:20 35.51432 24.41982 4203 ft 233 kts 186°
2026-05-04 15:21 35.49856 24.41819 4093 ft 223 kts 191°
2026-05-04 15:21 35.48352 24.41512 4003 ft 212 kts 197°
2026-05-04 15:21 35.46285 24.39632 3680 ft 174 kts 246°
2026-05-04 15:22 35.45903 24.38266 3491 ft 167 kts 266°
2026-05-04 15:22 35.45939 24.36865 3308 ft 163 kts 284°
2026-05-04 15:22 35.46747 24.34285 2895 ft 161 kts 293°
2026-05-04 15:23 35.47166 24.33018 2678 ft 160 kts 293°
2026-05-04 15:23 35.47583 24.31756 2468 ft 160 kts 292°
2026-05-04 15:23 35.47996 24.30516 2260 ft 150 kts 292°
2026-05-04 15:23 35.48379 24.29363 2192 ft 142 kts 293°
2026-05-04 15:24 35.49114 24.27150 2186 ft 140 kts 292°
2026-05-04 15:24 35.49843 24.24945 1844 ft 139 kts 292°
2026-05-04 15:25 35.50206 24.23851 1647 ft 138 kts 293°
2026-05-04 15:25 35.50568 24.22760 1469 ft 138 kts 293°
2026-05-04 15:25 35.50928 24.21670 1307 ft 138 kts 291°
2026-05-04 15:26 35.51710 24.19515 1006 ft 138 kts 289°
2026-05-04 15:26 35.52061 24.18421 841 ft 138 kts 289°
2026-05-04 15:26 35.52756 24.16265 511 ft 126 kts 291°
2026-05-04 15:27 35.53042 24.15386 489 ft 86 kts 292°
2026-05-04 15:27 35.53313 24.14552 491 ft 46 kts 291°
2026-05-04 15:28 35.53441 24.14268 496 ft 7 kts 17°
2026-05-04 15:28 35.53529 24.14306 489 ft 13 kts 20°
2026-05-04 15:28 35.53705 24.14314 492 ft 18 kts 292°
2026-05-04 15:29 35.53757 24.14151 493 ft 21 kts 291°
2026-05-04 15:30 35.53910 24.13954 496 ft 0 kts 20°